Theta_e
349 356 361 361 362 363 363 363 363 363 363 362 363 363 363 363 363 362 364 364 363 364 363 363 363 363 363 361 361 361 360 361 360 359 360 359 361 362 362 361 362 354 362
352 356 363 362 363 363 363 363 363 363 363 363 363 362 363 363 362 363 363 363 364 363 364 364 362 363 362 362 361 359 358 359 361 359 359 360 359 360 361 362 363 357 360
352 356 359 363 363 363 362 362 363 362 362 362 362 363 363 364 363 364 365 364 363 363 362 360 362 362 361 360 359 359 359 360 353 349 359 350 354 358 359 360 360 360 361
352 354 357 364 362 362 362 362 362 363 363 362 362 362 363 363 365 364 363 363 365 363 361 362 362 362 361 361 359 356 355 359 357 352 354 351 350 358 359 358 358 358 359
353 357 359 362 362 362 362 361 362 362 362 363 362 362 363 364 364 363 362 362 362 363 362 361 361 361 360 359 358 359 360 360 360 358 356 353 349 357 358 358 358 358 359
354 357 362 362 362 362 362 362 363 362 363 363 363 363 363 362 361 361 361 362 362 361 360 360 360 358 358 357 358 360 364 363 363 357 350 354 347 359 359 360 359 358 359
354 356 359 363 362 362 362 363 362 363 363 363 363 363 360 359 358 358 358 359 360 360 360 359 357 357 358 356 356 359 361 362 359 357 351 349 352 360 357 358 358 357 358
353 355 357 362 360 357 363 363 362 362 363 363 362 359 359 358 357 357 358 358 359 358 358 357 358 357 356 357 358 362 363 364 360 354 352 351 359 362 358 357 358 358 357
354 352 350 354 361 361 356 362 361 362 363 361 359 359 358 357 356 356 356 357 359 359 359 358 358 358 359 360 362 363 365 366 359 356 349 354 362 363 360 358 358 358 358
350 348 346 358 357 356 350 360 360 361 360 359 358 358 358 357 357 356 359 359 357 358 358 359 359 362 363 364 365 366 365 359 351 355 348 352 363 362 361 359 357 359 360
344 343 352 355 357 355 353 356 359 360 359 358 357 358 359 353 353 353 359 361 358 358 359 361 363 364 365 367 368 368 368 356 345 355 348 361 364 365 362 363 361 361 360
339 341 351 349 351 350 343 355 353 351 353 356 357 360 359 359 359 355 358 364 364 364 364 365 365 365 366 358 361 366 362 357 353 351 346 362 363 362 363 365 363 362 362
340 342 345 343 348 341 348 352 348 351 358 364 368 361 361 369 364 357 357 356 359 365 360 361 361 359 361 357 356 354 354 353 349 352 352 359 361 362 361 363 363 361 358
339 340 340 344 349 347 350 348 351 354 362 363 368 372 373 369 361 366 352 347 338 337 354 364 358 361 361 359 356 355 351 350 353 352 356 361 362 363 363 363 364 364 363
337 341 344 352 363 360 364 367 364 358 360 364 369 374 369 358 348 356 363 354 352 354 356 365 362 358 359 359 357 355 352 352 353 354 355 364 362 362 364 364 365 362 357
340 343 347 352 361 358 362 372 364 357 358 360 363 368 369 369 374 370 368 353 360 357 360 364 365 365 362 361 358 358 357 353 355 356 354 355 363 361 362 364 365 365 362
339 344 348 352 355 363 367 368 366 363 353 362 364 371 369 370 372 373 364 360 366 370 368 369 366 365 362 358 353 360 359 357 356 357 357 358 358 363 362 363 363 363 365
341 348 349 347 352 357 363 366 360 365 354 356 360 364 369 370 369 367 359 358 365 362 358 350 348 348 352 354 352 353 348 352 355 356 356 355 358 355 362 364 363 363 364
346 351 350 353 350 354 365 360 365 367 352 359 360 358 368 365 364 369 360 364 366 363 360 359 358 357 352 351 345 344 350 348 351 346 349 353 352 358 356 361 364 364 366
347 353 354 355 358 359 359 365 360 356 358 357 357 363 361 363 365 366 362 364 365 360 360 365 364 363 360 355 352 350 348 350 348 351 350 349 349 353 352 357 358 359 364
346 350 356 356 369 359 359 353 354 350 352 351 352 362 363 364 360 371 365 359 358 353 362 361 361 359 354 355 352 347 350 350 347 346 346 345 353 352 351 354 356 356 359
346 349 354 359 364 364 360 359 360 359 356 352 354 371 369 367 370 369 368 364 367 362 360 360 358 353 353 354 348 349 339 344 349 346 347 351 352 349 347 346 355 345 351
348 347 353 357 363 362 363 361 367 368 364 362 365 364 366 367 367 366 367 366 367 366 359 358 355 351 347 348 349 347 337 335 342 344 345 347 347 340 341 341 343 342 355
348 353 355 356 361 363 366 361 365 364 352 354 355 361 363 362 360 363 364 361 361 360 361 359 354 351 347 343 346 348 346 344 335 329 335 334 336 334 337 336 336 344 352
351 350 356 359 358 362 361 363 363 361 353 349 350 351 355 355 355 355 357 356 354 352 352 349 350 345 345 344 346 340 341 344 342 336 325 326 328 330 332 333 338 338 352
351 352 355 360 360 364 367 362 355 350 351 342 344 345 353 353 347 342 340 341 341 342 343 342 345 342 339 338 335 333 333 329 325 327 323 324 322 325 326 332 336 334 342
Wind_Speed
11 9 8 8 8 10 10 10 10 12 11 11 11 12 12 11 11 12 13 13 14 14 14 12 12 12 13 12 11 12 10 12 12 12 14 13 12 10 9 8 16 15 15
16 12 10 9 9 10 11 11 10 12 11 10 12 11 12 11 12 14 14 13 14 13 13 12 12 13 12 11 10 8 8 11 11 8 12 15 13 12 13 13 16 14 14
17 13 12 9 11 10 10 10 11 11 11 10 11 11 12 12 11 13 13 13 13 13 13 12 11 11 10 9 8 5 6 11 9 5 6 10 10 13 13 14 15 15 12
16 14 13 10 11 11 11 10 10 11 11 11 10 12 11 11 13 12 13 13 12 12 12 11 11 10 9 7 5 1 3 10 16 5 6 3 11 12 13 13 13 12 11
15 16 13 13 11 11 10 10 10 11 11 11 11 10 11 12 12 12 12 12 12 11 10 9 8 7 7 5 2 4 7 6 9 17 12 6 8 10 12 13 12 10 12
17 15 14 13 12 11 10 10 11 10 10 11 10 10 11 10 10 10 10 10 10 9 7 6 6 5 4 1 2 5 9 11 10 6 8 11 9 11 10 8 12 12 12
18 15 13 13 13 12 11 10 11 9 10 10 10 10 9 9 9 9 9 9 8 7 5 4 4 3 2 1 3 6 7 9 9 7 8 10 10 10 10 11 12 11 12
18 17 14 12 12 12 11 10 11 9 9 9 9 8 8 8 8 8 8 8 8 7 5 4 3 2 2 4 7 10 8 9 10 8 10 9 12 12 11 10 10 12 11
19 17 14 12 11 13 11 10 10 9 8 8 8 8 8 8 8 8 8 8 7 7 6 5 5 5 6 8 11 10 9 14 8 7 12 8 14 13 13 11 10 10 10
16 17 14 12 13 12 11 11 11 10 8 8 9 10 10 11 11 10 9 8 8 7 8 8 9 9 9 10 14 12 11 31 13 16 10 8 14 12 12 11 10 10 9
11 11 13 13 9 11 11 9 10 11 10 10 8 8 8 8 10 13 10 12 10 10 11 12 14 13 11 12 17 17 11 5 8 7 6 19 15 13 12 10 9 9 9
11 12 15 15 13 12 10 10 9 9 8 7 6 6 8 9 10 12 13 16 15 14 12 13 14 14 10 7 6 13 7 11 7 5 8 18 15 12 11 11 11 11 10
12 8 11 14 12 14 10 8 6 6 6 4 8 4 10 5 5 6 4 5 4 5 2 7 7 7 10 4 3 1 5 2 8 4 12 19 16 13 12 11 10 11 11
12 11 15 11 7 11 7 7 6 6 5 5 4 7 2 3 7 4 11 8 7 4 11 4 12 11 2 1 4 3 7 3 5 7 4 19 18 15 14 13 12 12 13
11 9 14 7 6 5 1 2 2 5 5 8 5 3 6 9 2 9 10 8 9 9 12 4 4 3 1 4 2 3 6 7 7 6 4 15 16 16 15 14 13 14 14
12 13 14 9 6 6 2 3 3 9 9 3 5 2 6 6 4 3 3 3 5 11 8 1 1 2 2 4 3 3 2 6 1 4 8 8 16 17 17 17 16 15 16
11 15 13 10 10 6 4 2 4 3 4 3 6 5 2 5 6 6 5 2 2 5 4 4 3 3 3 3 13 4 5 6 5 3 1 6 8 14 15 16 17 17 17
12 15 13 13 13 8 7 4 5 1 5 5 5 6 5 2 3 6 6 5 2 4 4 8 11 9 14 5 3 5 5 4 5 6 6 4 8 7 11 15 15 15 16
11 14 10 11 13 11 7 6 4 4 10 7 3 5 8 6 2 2 6 3 5 4 4 6 7 7 5 6 8 7 4 4 5 7 8 5 6 7 7 13 16 16 16
14 11 9 6 10 10 8 5 4 4 3 4 4 0 8 5 5 2 4 6 1 2 2 5 6 5 5 5 10 8 5 6 7 5 4 6 8 7 7 8 6 9 17
14 12 9 8 6 7 7 7 4 5 6 6 6 5 7 4 4 5 1 10 4 9 5 7 4 6 7 8 6 9 8 11 10 13 10 12 5 5 2 6 3 3 8
15 14 12 8 8 5 5 5 4 5 3 4 5 4 5 6 4 2 5 5 7 4 8 8 7 4 4 6 4 1 5 1 3 4 5 4 5 4 6 6 6 4 4
15 14 13 12 10 9 8 5 4 3 3 4 2 5 5 5 4 5 5 4 6 6 7 7 6 6 4 4 6 3 3 3 6 4 5 8 3 2 4 5 5 5 3
16 18 17 15 11 10 9 7 6 2 4 6 8 8 7 7 7 6 8 6 6 5 5 4 4 2 2 2 4 5 7 5 3 3 2 5 6 6 5 4 5 6 13
17 17 16 18 16 13 12 10 5 3 6 4 7 12 4 7 9 10 10 9 7 5 7 7 6 7 5 4 1 3 5 4 3 3 4 6 5 5 5 5 2 4 12
17 16 18 19 14 12 7 5 9 12 11 7 9 3 2 5 5 10 13 9 9 7 7 5 5 7 5 6 5 6 4 4 5 4 4 6 7 6 7 6 5 4 8
Wind_Direction
120 115 102 100 94 95 93 91 87 85 89 89 88 83 86 89 92 92 94 97 99 102 106 106 97 94 82 79 83 86 96 93 92 96 97 86 79 72 69 90 105 99 98
124 114 111 105 103 92 90 94 96 91 91 95 89 94 94 98 97 100 99 95 100 106 103 98 96 91 92 90 89 99 105 90 80 94 114 99 85 73 78 78 94 108 104
109 124 113 106 97 94 94 93 91 95 96 99 97 99 97 100 107 98 95 104 102 99 101 102 98 101 97 90 90 105 114 103 89 37 230 108 99 95 92 96 105 106 110
129 121 113 110 103 97 94 100 106 107 111 104 105 102 104 106 97 93 101 95 97 107 110 113 107 106 102 102 99 144 177 143 142 316 259 186 103 106 105 104 108 114 115
120 105 115 113 111 107 106 103 106 113 116 115 111 107 106 99 100 103 101 103 107 111 118 118 117 113 106 111 151 254 276 261 187 189 218 224 114 117 118 119 119 127 146
106 111 118 121 115 115 116 117 116 116 117 117 114 113 106 105 109 111 113 115 116 119 127 131 127 113 105 123 238 262 270 278 293 274 102 114 106 131 128 140 126 131 128
122 122 122 126 124 125 120 122 115 115 117 119 122 114 115 120 121 125 130 134 133 138 148 147 133 125 135 218 273 283 279 277 274 255 96 98 117 140 143 143 143 149 150
125 121 132 133 131 131 127 123 124 126 123 122 116 122 126 130 131 136 141 149 152 163 174 178 171 180 221 252 265 268 274 279 285 215 128 124 140 153 155 159 160 161 165
137 124 133 139 142 137 141 130 131 129 123 125 138 144 144 144 148 153 159 164 169 176 189 199 213 228 239 249 253 259 290 286 289 269 118 123 161 165 165 166 176 176 177
135 135 136 146 154 149 152 143 142 139 148 160 169 170 169 169 171 169 173 179 181 191 206 212 221 228 236 245 257 251 255 21 326 289 125 139 161 169 171 176 183 188 191
110 120 126 157 147 137 136 148 155 161 169 188 190 198 197 197 178 166 181 167 189 200 213 223 225 221 224 244 252 251 197 184 221 241 107 145 159 170 177 187 194 201 201
140 161 155 146 144 156 128 162 166 171 177 191 182 161 243 237 176 171 165 180 192 205 225 243 245 244 227 233 225 248 225 165 231 154 130 149 157 174 182 191 197 206 211
150 145 145 119 181 136 147 184 178 168 155 150 110 303 239 190 167 161 124 176 220 199 259 235 307 270 261 46 315 30 312 247 133 174 143 153 160 176 190 199 204 206 210
139 158 116 157 153 124 159 177 179 146 158 156 173 222 285 297 100 233 96 272 57 195 252 211 138 247 353 28 298 352 284 0 45 69 237 159 164 178 193 205 211 217 218
140 144 113 118 82 120 153 120 93 148 150 149 162 282 109 233 235 20 158 127 183 100 316 283 137 190 258 257 238 329 343 327 88 106 217 177 174 183 194 204 214 211 217
143 128 119 132 96 112 32 68 281 103 286 177 124 45 345 11 23 293 31 93 273 130 227 318 89 314 332 318 241 244 301 298 215 193 182 185 186 189 196 205 212 220 219
152 131 142 141 155 131 135 236 279 198 138 139 106 123 11 356 346 330 337 308 90 140 161 212 227 209 241 303 325 222 234 230 276 253 349 170 191 203 204 210 216 215 225
158 131 161 161 153 174 150 231 265 40 18 298 157 152 164 197 309 322 316 35 22 14 346 77 266 59 312 5 319 297 289 249 237 186 200 222 168 182 209 217 224 232 224
146 138 177 154 160 162 154 185 255 287 172 252 227 182 167 186 173 261 308 352 41 359 320 5 22 14 6 355 308 282 284 292 255 260 140 176 234 167 188 199 216 228 234
144 148 167 176 151 157 155 225 221 235 242 262 269 206 157 188 151 176 293 310 56 268 26 38 27 360 342 328 308 324 314 292 265 259 223 190 221 196 201 159 202 223 228
156 156 172 178 147 155 158 196 213 243 206 214 244 211 151 142 185 184 298 335 68 48 4 53 11 10 351 351 346 347 327 341 19 358 2 14 357 37 109 181 194 152 249
162 162 165 185 168 173 190 234 225 233 231 232 210 47 105 104 61 26 64 237 8 10 43 40 30 16 333 17 358 328 317 312 80 247 10 285 8 351 4 8 31 50 45
160 166 171 180 182 185 227 221 259 279 309 294 142 152 169 146 110 43 17 355 350 22 33 44 47 40 6 342 356 297 324 324 327 334 32 261 86 345 334 327 16 349 31
174 176 173 178 187 193 211 252 218 249 252 15 14 3 75 48 71 68 63 21 10 48 65 66 83 84 150 248 321 359 323 231 268 310 302 4 353 31 352 347 335 356 94
179 183 175 180 181 187 191 224 234 263 16 18 10 15 1 76 49 32 56 44 18 51 52 48 54 36 35 28 328 269 235 261 346 341 328 344 355 3 348 324 350 6 110
181 179 186 176 175 185 150 55 44 57 40 38 45 333 30 57 25 74 62 40 8 30 27 46 47 76 52 35 4 7 359 21 11 359 351 337 354 332 323 333 35 31 51